Weather History for KLNK - October, 2013

Change the Weather History Date:

Friday, October 18, 2013

  Actual Average Record
Temperature  
Mean Temperature 42 °F 52 °F  
Max Temperature 50 °F 65 °F 87 °F (1945)
Min Temperature 34 °F 40 °F 21 °F (1972)
Degree Days  
Heating Degree Days 23 13  
Month to date heating degree days 153 179  
Since 1 July heating degree days 184 277  
Cooling Degree Days 0 0  
Month to date cooling degree days 18 12  
Year to date cooling degree days 1236 1170  
Moisture  
Dew Point 29 °F    
Average Humidity 58    
Maximum Humidity 82    
Minimum Humidity 33    
Precipitation  
Precipitation 0.00 in 0.06 in 1.27 in (1971)
Month to date precipitation 2.59 1.23  
Year to date precipitation 25.03 25.83  
Snow  
Snow 0.00 in 0.00 in - ()
Month to date snowfall 0.0 0.2  
Since 1 July snowfall 0.0 0.2  
Snow Depth 0.00 in    
Sea Level Pressure  
Sea Level Pressure 30.12 in    
Wind  
Wind Speed 7 mph (WNW)    
Max Wind Speed 12 mph    
Max Gust Speed 15 mph    
Visibility 10 miles    
Events      
T = Trace of Precipitation, MM = Missing Value Source: NWS Daily Summary

Daily Weather History Graph

Daily Weather History Graph

Search for Another Location

Airport or City:

Trip Planner

Search our weather history database for the weather conditions in past years. The results will help you decide how hot, cold, wet, or windy it might be!

Date:

Astronomy

Oct. 18, 2013 Rise Set
Actual Time 7:41 AM CDT 6:41 PM CDT
Civil Twilight 7:14 AM CDT 7:09 PM CDT
Nautical Twilight 6:42 AM CDT 7:41 PM CDT
Astronomical Twilight 6:10 AM CDT 8:12 PM CDT
Moon 6:32 PM CDT (10/18) 7:18 AM CDT (10/18)
Length of Visible Light 11h 55m
Length of Day
10h 59m
Full, 100% of the Moon is Illuminated
Oct 18
Full
Oct 18
Full
Oct 26
Last Quarter
Nov 3
New
Nov 9
First Quarter

Hourly Weather History & Observations

Time (CDT) Temp. Windchill Dew Point Humidity Pressure Visibility Wind Dir Wind Speed Gust Speed Precip Events Conditions
12:54 AM 42.1 °F 37.1 °F 33.1 °F 70% 30.09 in 10.0 mi NW 8.1 mph - N/A   Clear
1:54 AM 39.0 °F 32.8 °F 33.1 °F 79% 30.10 in 10.0 mi NW 9.2 mph - N/A   Clear
2:54 AM 37.9 °F 32.1 °F 32.0 °F 79% 30.11 in 10.0 mi NW 8.1 mph - N/A   Clear
3:54 AM 37.0 °F 30.4 °F 30.9 °F 79% 30.11 in 10.0 mi NW 9.2 mph - N/A   Clear
4:54 AM 36.0 °F 30.3 °F 30.0 °F 79% 30.13 in 10.0 mi NW 6.9 mph - N/A   Clear
5:54 AM 35.1 °F 30.1 °F 28.9 °F 78% 30.13 in 10.0 mi NNW 5.8 mph - N/A   Clear
6:54 AM 36.0 °F 31.1 °F 28.9 °F 76% 30.15 in 10.0 mi WNW 5.8 mph - N/A   Clear
7:54 AM 36.0 °F 31.1 °F 30.0 °F 79% 30.14 in 10.0 mi NW 5.8 mph - N/A   Clear
8:54 AM 37.0 °F 31.6 °F 30.0 °F 76% 30.17 in 10.0 mi NW 6.9 mph - N/A   Partly Cloudy
9:54 AM 39.0 °F 33.4 °F 30.0 °F 70% 30.18 in 10.0 mi NW 8.1 mph - N/A   Clear
10:54 AM 42.1 °F 39.2 °F 30.0 °F 62% 30.18 in 10.0 mi WNW 4.6 mph - N/A   Clear
11:54 AM 45.0 °F 41.8 °F 30.9 °F 58% 30.16 in 10.0 mi North 5.8 mph - N/A   Clear
12:54 PM 46.0 °F 43.1 °F 30.0 °F 54% 30.17 in 10.0 mi NW 5.8 mph - N/A   Clear
1:54 PM 48.0 °F - 28.0 °F 46% 30.14 in 10.0 mi WNW 5.8 mph - N/A   Clear
2:54 PM 48.9 °F - 28.0 °F 44% 30.11 in 10.0 mi Variable 3.5 mph - N/A   Clear
3:54 PM 50.0 °F - 24.1 °F 36% 30.10 in 10.0 mi NW 9.2 mph - N/A   Clear
4:54 PM 50.0 °F - 23.0 °F 35% 30.10 in 10.0 mi West 10.4 mph - N/A   Clear
5:54 PM 48.9 °F - 23.0 °F 36% 30.09 in 10.0 mi WSW 5.8 mph - N/A   Clear
6:54 PM 44.1 °F 40.8 °F 25.0 °F 47% 30.08 in 10.0 mi SSW 5.8 mph - N/A   Clear
7:54 PM 41.0 °F 38.0 °F 26.1 °F 55% 30.08 in 10.0 mi SW 4.6 mph - N/A   Clear
8:54 PM 41.0 °F 36.4 °F 26.1 °F 55% 30.08 in 10.0 mi SW 6.9 mph - N/A   Scattered Clouds
9:54 PM 39.9 °F 35.8 °F 26.1 °F 58% 30.07 in 10.0 mi West 5.8 mph - N/A   Partly Cloudy
10:54 PM 39.0 °F 34.8 °F 27.0 °F 62% 30.07 in 10.0 mi West 5.8 mph - N/A   Partly Cloudy
11:54 PM 37.0 °F 32.4 °F 27.0 °F 67% 30.06 in 10.0 mi SW 5.8 mph - N/A   Clear